When you browse on this site, cookies collect data to enhance your experience and personalize the content and advertising you see.
Visit our Privacy Policy to learn more. By continuing to use the site, you agree to this use of cookies and data.
  • In Czech Republic
  • List of Countries
  • For 7 days
  • Water Temperature
  • Satellite Maps
  • Weather Map
  • Weather Widgets
  • user-avatar
    Login

    Hourly Weather Klagenfurt

    Today, 19 December, Wednesday

    Time Temperature Precipitation Wind Pressure Humidity
    00:00 -2°C° 0 mm 1 mps 694 mmHg 90%
    01:00 -3°C° 0 mm 1 mps 693 mmHg 92%
    02:00 -3°C° 0 mm 1 mps 693 mmHg 92%
    03:00 -3°C° 0 mm 1 mps 693 mmHg 92%
    04:00 -3°C° 0 mm 1 mps 693 mmHg 91%
    05:00 -3°C° 0 mm 1 mps 693 mmHg 91%
    06:00 -3°C° 0 mm 1 mps 692 mmHg 90%
    07:00 -3°C° 0 mm 1 mps 692 mmHg 90%
    08:00 -2°C° 0 mm 1 mps 692 mmHg 86%
    09:00 -1°C° 0 mm 1 mps 693 mmHg 81%
    10:00 0°C° 0 mm 1 mps 693 mmHg 77%
    11:00 +1°C° 0 mm 1 mps 693 mmHg 73%
    12:00 +2°C° 0 mm 1 mps 692 mmHg 69%
    13:00 +2°C° 0 mm 1 mps 692 mmHg 65%
    14:00 +2°C° 0 mm 1 mps 692 mmHg 70%
    15:00 +1°C° 0 mm 1 mps 691 mmHg 74%
    16:00 0°C° 0 mm 1 mps 691 mmHg 79%
    17:00 -1°C° 0 mm 1 mps 690 mmHg 81%
    18:00 -1°C° 0 mm 1 mps 690 mmHg 82%
    19:00 -2°C° 0 mm 1 mps 690 mmHg 84%
    20:00 -2°C° 0 mm 1 mps 690 mmHg 84%
    21:00 -2°C° 0 mm 1 mps 690 mmHg 83%
    22:00 -2°C° 0 mm 1 mps 690 mmHg 83%
    23:00 -2°C° 0 mm 1 mps 690 mmHg 83%

    Tomorrow, 20 December, Thursday

    Time Temperature Precipitation Wind Pressure Humidity
    00:00 -2°C° 0 mm 1 mps 690 mmHg 83%
    01:00 -2°C° 0 mm 1 mps 690 mmHg 83%
    02:00 -1°C° 0.1 mm 1 mps 690 mmHg 84%
    03:00 -1°C° 0.1 mm 1 mps 690 mmHg 85%
    04:00 0°C° 0.1 mm 1 mps 690 mmHg 85%
    05:00 0°C° 0.3 mm 1 mps 690 mmHg 87%
    06:00 0°C° 0.3 mm 1 mps 690 mmHg 89%
    07:00 0°C° 0.3 mm 0 mps 690 mmHg 90%
    08:00 0°C° 0.5 mm 0 mps 690 mmHg 89%
    09:00 0°C° 0.5 mm 0 mps 691 mmHg 89%
    10:00 +1°C° 0.5 mm 0 mps 691 mmHg 88%
    11:00 +2°C° 0.3 mm 0 mps 691 mmHg 86%
    12:00 +2°C° 0.3 mm 0 mps 691 mmHg 84%
    13:00 +3°C° 0.3 mm 0 mps 691 mmHg 81%
    14:00 +2°C° 0.1 mm 0 mps 691 mmHg 84%
    15:00 +2°C° 0.1 mm 0 mps 691 mmHg 87%
    16:00 +1°C° 0.1 mm 0 mps 691 mmHg 90%
    17:00 +1°C° 0.1 mm 0 mps 692 mmHg 91%
    18:00 +1°C° 0.1 mm 0 mps 692 mmHg 91%
    19:00 0°C° 0.1 mm 0 mps 692 mmHg 91%
    20:00 0°C° 0.1 mm 0 mps 693 mmHg 91%
    21:00 0°C° 0.1 mm 0 mps 693 mmHg 90%
    22:00 0°C° 0.1 mm 0 mps 693 mmHg 90%
    23:00 0°C° 0 mm 0 mps 693 mmHg 90%

    Day after tomorrow, 21 December, Friday

    Time Temperature Precipitation Wind Pressure Humidity
    00:00 0°C° 0 mm 0 mps 693 mmHg 89%
    01:00 0°C° 0 mm 0 mps 694 mmHg 89%
    02:00 -1°C° 0 mm 0 mps 693 mmHg 89%
    03:00 -1°C° 0 mm 0 mps 693 mmHg 89%
    04:00 0°C° 0 mm 1 mps 693 mmHg 89%
    05:00 0°C° 0 mm 1 mps 693 mmHg 90%
    06:00 0°C° 0 mm 1 mps 693 mmHg 90%
    07:00 0°C° 0 mm 1 mps 693 mmHg 90%
    08:00 +1°C° 0 mm 1 mps 693 mmHg 89%
    09:00 +2°C° 0 mm 1 mps 693 mmHg 89%
    10:00 +3°C° 0 mm 1 mps 693 mmHg 88%
    11:00 +2°C° 0 mm 2 mps 693 mmHg 87%
    12:00 +3°C° 0 mm 2 mps 692 mmHg 86%
    13:00 +3°C° 0 mm 2 mps 691 mmHg 85%
    14:00 +3°C° 0 mm 2 mps 691 mmHg 86%
    15:00 +2°C° 0 mm 2 mps 691 mmHg 88%
    16:00 +2°C° 0 mm 2 mps 690 mmHg 90%
    17:00 +1°C° 0 mm 2 mps 690 mmHg 91%
    18:00 +1°C° 0 mm 2 mps 690 mmHg 91%
    19:00 -1°C° 0 mm 2 mps 690 mmHg 92%
    20:00 -1°C° 0 mm 2 mps 690 mmHg 92%
    21:00 -1°C° 0 mm 2 mps 690 mmHg 93%
    22:00 -1°C° 0 mm 2 mps 690 mmHg 93%
    23:00 -1°C° 0 mm 2 mps 690 mmHg 93%

    22 December, Saturday

    Time Temperature Precipitation Wind Pressure Humidity
    00:00 -1°C° 0 mm 2 mps 690 mmHg 92%
    01:00 -1°C° 0 mm 2 mps 690 mmHg 92%
    02:00 -1°C° 0 mm 2 mps 690 mmHg 92%
    03:00 -1°C° 0 mm 2 mps 689 mmHg 92%
    04:00 -1°C° 0 mm 2 mps 689 mmHg 92%
    05:00 -1°C° 0 mm 2 mps 689 mmHg 92%
    06:00 -1°C° 0 mm 2 mps 689 mmHg 93%
    07:00 -1°C° 0 mm 2 mps 689 mmHg 93%
    08:00 +1°C° 0 mm 2 mps 689 mmHg 91%
    09:00 +2°C° 0 mm 2 mps 690 mmHg 89%
    10:00 +3°C° 0 mm 2 mps 690 mmHg 88%
    11:00 +4°C° 0 mm 2 mps 690 mmHg 87%
    12:00 +4°C° 0 mm 2 mps 689 mmHg 86%
    13:00 +5°C° 0 mm 2 mps 689 mmHg 85%
    14:00 +4°C° 0 mm 2 mps 689 mmHg 88%
    15:00 +4°C° 0 mm 2 mps 689 mmHg 91%
    16:00 +4°C° 0 mm 1 mps 689 mmHg 93%
    17:00 +4°C° 0 mm 1 mps 690 mmHg 93%
    18:00 +3°C° 0 mm 1 mps 690 mmHg 93%
    19:00 +3°C° 0 mm 1 mps 690 mmHg 93%
    20:00 +3°C° 0 mm 1 mps 691 mmHg 92%
    21:00 +3°C° 0 mm 1 mps 691 mmHg 92%
    22:00 +3°C° 0 mm 1 mps 691 mmHg 91%
    23:00 +3°C° 0 mm 1 mps 691 mmHg 91%

    23 December, Sunday

    Time Temperature Precipitation Wind Pressure Humidity
    00:00 +3°C° 0 mm 1 mps 691 mmHg 90%
    01:00 +2°C° 0 mm 1 mps 691 mmHg 90%
    02:00 +2°C° 0 mm 1 mps 691 mmHg 90%
    03:00 +2°C° 0 mm 1 mps 692 mmHg 90%
    04:00 +2°C° 0 mm 1 mps 692 mmHg 90%
    05:00 +2°C° 0 mm 1 mps 692 mmHg 90%
    06:00 +2°C° 0 mm 1 mps 692 mmHg 90%
    07:00 +2°C° 0 mm 1 mps 692 mmHg 89%
    08:00 +3°C° 0 mm 1 mps 692 mmHg 88%
    09:00 +4°C° 0 mm 1 mps 693 mmHg 87%
    10:00 +5°C° 0 mm 1 mps 693 mmHg 86%
    11:00 +6°C° 0 mm 1 mps 693 mmHg 85%
    12:00 +7°C° 0 mm 1 mps 693 mmHg 85%
    13:00 +8°C° 0 mm 1 mps 693 mmHg 84%
    14:00 +7°C° 0 mm 1 mps 692 mmHg 87%
    15:00 +6°C° 0 mm 1 mps 692 mmHg 90%
    16:00 +5°C° 0 mm 1 mps 692 mmHg 93%
    17:00 +4°C° 0 mm 1 mps 692 mmHg 93%
    18:00 +4°C° 0 mm 1 mps 692 mmHg 93%
    19:00 +2°C° 0 mm 0 mps 692 mmHg 93%
    20:00 +3°C° 0 mm 1 mps 693 mmHg 92%
    21:00 +3°C° 0 mm 1 mps 693 mmHg 92%
    22:00 +3°C° 0 mm 1 mps 693 mmHg 91%
    23:00 +3°C° 0 mm 1 mps 693 mmHg 91%

    24 December, Monday

    Time Temperature Precipitation Wind Pressure Humidity
    00:00 +3°C° 0 mm 1 mps 693 mmHg 91%
    01:00 +2°C° 0 mm 1 mps 693 mmHg 90%
    02:00 +2°C° 0 mm 1 mps 693 mmHg 90%
    03:00 +2°C° 0 mm 1 mps 692 mmHg 90%
    04:00 +2°C° 0 mm 1 mps 692 mmHg 90%
    05:00 +2°C° 0.1 mm 1 mps 692 mmHg 91%
    06:00 +3°C° 0.1 mm 1 mps 692 mmHg 91%
    07:00 +3°C° 0.1 mm 1 mps 693 mmHg 91%
    08:00 +3°C° 0.2 mm 1 mps 693 mmHg 90%
    09:00 +4°C° 0.2 mm 1 mps 693 mmHg 89%
    10:00 +4°C° 0.2 mm 1 mps 694 mmHg 87%
    11:00 +5°C° 0.1 mm 1 mps 694 mmHg 86%
    12:00 +5°C° 0.1 mm 1 mps 694 mmHg 85%
    13:00 +6°C° 0.1 mm 1 mps 694 mmHg 84%
    14:00 +5°C° 0 mm 1 mps 694 mmHg 86%
    15:00 +4°C° 0 mm 1 mps 694 mmHg 88%
    16:00 +4°C° 0 mm 1 mps 694 mmHg 90%
    17:00 +3°C° 0 mm 1 mps 694 mmHg 91%
    18:00 +3°C° 0 mm 1 mps 695 mmHg 91%
    19:00 +2°C° 0 mm 1 mps 695 mmHg 92%
    20:00 +2°C° 0 mm 1 mps 696 mmHg 92%
    21:00 +2°C° 0 mm 1 mps 696 mmHg 92%
    22:00 +1°C° 0 mm 1 mps 697 mmHg 92%
    23:00 +1°C° 0 mm 1 mps 697 mmHg 92%
    Show more